Lexington Weather

Lexington, Massachusetts, USA

40°F
3/2/2024 9:09am 
  • Lexington Conditions: Overcast
  • Temperature: 40.1°F / 4.5°CWarmer 2.0°F than last hour.
  • Dew Point: 33.8°FIncreased 1.3°Fsince last hour.
  • Relative Humidity: 78%Decreased 2.0% since last hour.
  • Wind: Calm, 10-min avg: Calm, gust: 1 mph
  • Barometer: 30.44 inFalling 0.02  inHg/hr Falling Slowly
  • Visibility: 10 miles
  • Rain Today: 0.00 in
  •   

Regional Weather Roundup
for Boston, MA

        
000
ASUS41 KBOX 242010
RWRBOX

REGIONAL WEATHER ROUNDUP
NATIONAL WEATHER SERVICE BOSTON/NORTON MA
300 PM EST SAT FEB 24 2024

NOTE:  "FAIR" INDICATES FEW OR NO CLOUDS BELOW 12,000 FEET WITH NO 
SIGNIFICANT WEATHER AND/OR OBSTRUCTIONS TO VISIBILITY.

MAZALL-242100-
EASTERN MASSACHUSETTS
  
CITY           SKY/WX    TMP DP  RH WIND       PRES   REMARKS
BOSTON         MOSUNNY   39  21  48 NW13G22   29.66R WCI  31          
BEVERLY        SUNNY     35   8  32 W15G22    29.65R WCI  25          
LAWRENCE       SUNNY     34   4  28 NW14G26   29.68R WCI  25          
BEDFORD        SUNNY     36   0  21 NW15G24   29.66R WCI  27          
NORWOOD        PTSUNNY   41  13  31 NW13G20   29.66R                  
MARSHFIELD     CLOUDY    37  10  32 VRB8G18   29.66R WCI  31          
PLYMOUTH       CLOUDY    39  21  48 N13       29.64R WCI  31          
TAUNTON        CLOUDY    41  19  41 W8G17     29.65R                  
NEW BEDFORD    CLOUDY    41  19  41 VRB7      29.64R                  
$$

MAZALL-242100-
CAPE COD AND THE ISLANDS
  
CITY           SKY/WX    TMP DP  RH WIND       PRES   REMARKS
FALMOUTH       CLOUDY    37  28  70 N6G13     29.64R                  
HYANNIS        CLOUDY    35  24  64 N14G22    29.63R WCI  26          
CHATHAM        CLOUDY    36  23  59 VRB6      29.65R WCI  31          
PROVINCETOWN   CLOUDY    35  16  45 NW16G23   29.67R WCI  25          
NANTUCKET      CLOUDY    37  30  75 N15       29.65R WCI  28          
MARTHAS VNYRD  CLOUDY    40  30  67 N9        29.64R                  
$$
 
MAZALL-242100-
CENTRAL AND WESTERN MASSACHUSETTS
  
CITY           SKY/WX    TMP DP  RH WIND       PRES   REMARKS
WORCESTER      SUNNY     34   5  29 NW15G22   29.64R WCI  24          
FITCHBURG      SUNNY     37   9  31 NW13G18   29.68R WCI  29          
ORANGE         SUNNY     32   3  29 NW14G23   29.71R WCI  22          
SPRINGFIELD    NOT AVBL                                               
WESTFIELD      SUNNY     35   3  26 NW15      29.71R WCI  25          
NORTH ADAMS    SUNNY     28   9  44 W13G20    29.76R WCI  17          
PITTSFIELD     SUNNY     27  11  51 NW15G24   29.70R WCI  15          
$$
 
RIZALL-242100-
RHODE ISLAND
  
CITY           SKY/WX    TMP DP  RH WIND       PRES   REMARKS
PROVIDENCE     MOSUNNY   40  15  36 NW15G22   29.66R WCI  32          
NEWPORT        CLOUDY    39  25  57 NW9       29.65R                  
BLOCK ISLAND   CLOUDY    39  24  55 NW10G17   29.67R                  
SMITHFIELD     SUNNY     38  12  34 N8        29.65R                  
WESTERLY       MOSUNNY   40  22  48 VRB7      29.67R                  
$$
 
CTZALL-242100-
CONNECTICUT
  
CITY           SKY/WX    TMP DP  RH WIND       PRES   REMARKS
BRADLEY INTL   MOSUNNY   37  11  34 N12       29.72R WCI  29          
HARTFORD       SUNNY     38  11  32 NW9G25    29.72R WCI  31          
PLAINVILLE     FAIR      36  10  34 N7        29.71R WCI  30          
BRIDGEPORT     SUNNY     40   8  26 N17G28    29.72R WCI  31          
DANBURY        SUNNY     38  11  32 N14G22    29.73R WCI  30          
GROTON         SUNNY     42  21  43 N15       29.68R                  
NEW HAVEN      SUNNY     42  14  32 NW12      29.70R                  
CHESTER        SUNNY     39  10  30 N13G20    29.69R WCI  32          
MERIDEN        SUNNY     37  12  35 NW16G22   29.72R WCI  28          
WILLIMANTIC    SUNNY     37  15  40 NW13G18   29.69R WCI  29          
OXFORD         SUNNY     33   8  35 NW12G22   29.71R WCI  24          
$$

MEZ002-015-021-024-NHZ003-005-008-011-012-014-VTZ005-008-242100-
NORTHERN NEW ENGLAND
  
CITY           SKY/WX    TMP DP  RH WIND       PRES   REMARKS
PORTLAND ME    MOSUNNY   32   5  32 NW15G26   29.65R WCI  22          
BANGOR ME      SUNNY     26   5  40 NW16G26   29.60R WCI  14          
CONCORD NH     SUNNY     30   0  27 NW16G32   29.70R WCI  19          
MANCHESTER NH  MOSUNNY   34   3  27 NW16G25   29.68R WCI  24          
NASHUA NH      SUNNY     34  -1  22 NW17      29.70R WCI  23          
PORTSMOUTH NH  MOSUNNY   35   3  25 W14G20    29.65R WCI  26          
JAFFREY NH     SUNNY     31   4  31 NW9G20    29.66R WCI  23          
KEENE NH       SUNNY     30   2  30 N15G23    29.73R WCI  19          
BURLINGTON VT  MOSUNNY   18  -2  41 N12G22    29.88R WCI   5          
MT. WASHINGTON MOSUNNY   -6 -11  77 NW60G69     N/A  WCI -41          
$$

NYZ052-076-242100-
EASTERN NEW YORK
  
CITY           SKY/WX    TMP DP  RH WIND       PRES   REMARKS
ALBANY         MOSUNNY   32   8  36 NW14      29.81R WCI  22          
NEW YORK CITY  MOSUNNY   43  12  28 NW10G22   29.70R                  
$$
 
ANZALL-242100-
MARINE OBSERVATIONS
  
STATION/POSITION TIME  TEMP    WIND        PRES    VSBY  WAVE
                       AIR SEA DIR/SP/G                  HT/PER
                 (UTC) (F)     (DEG/KT/KT) (MB)    (MI)  (FT/S)
BOSTON BUOY      1950   35 40  320/ 16/ 19 1004.0R         4/10
BUZZARDS BAY     1900   38     320/ 15/ 17 1003.7R
NANTUCKET SOUND  1950   37 38  360/ 14/ 17 1003.4R         2/ 3
MASS BAY-STELLWA 1804   34 40  330/ 17/ 23 1002.1R  1 7/8  3/ 5
ISLE OF SHOALS   1900   33     280/ 17/ 19 1002.5R
S OF BLOCK IS    1956      41                N/A           7/11
$$

......................KEY.........................
  SKY/WX - SKY CONDITION/PRESENT WEATHER
  TMP    - TEMPERATURE IN FAHRENHEIT
  DWPT   - DEWPOINT IN FAHRENHEIT
  RH     - RELATIVE HUMIDITY IN PERCENT
  WIND   - DIRECTION AND SPEED IN MPH
  PRES   - MEAN SEA LEVEL PRESSURE IN INCHES OF HG
  WCI    - WIND CHILL INDEX
  VSB    - VISIBILITY IN MILES
  HX     - HEAT INDEX
  TC     - TEMPERATURE IN CELSIUS
  VRB    - VARIABLE WIND DIRECTION
  N/A    - NOT AVAILABLE
  
      

Other recent Regional Weather Roundups

Sat Mar 2, 8:10am EST

Sat Mar 2, 7:10am EST

Sat Mar 2, 6:10am EST

Sat Mar 2, 5:10am EST

Sat Mar 2, 4:10am EST

Sat Mar 2, 3:10am EST

Sat Mar 2, 2:10am EST

Sat Mar 2, 1:10am EST

Sat Mar 2, 12:10am EST

Fri Mar 1, 11:10pm EST

Fri Mar 1, 10:10pm EST

Fri Mar 1, 9:10pm EST

Fri Mar 1, 8:10pm EST

Fri Mar 1, 7:10pm EST

Fri Mar 1, 6:10pm EST

Fri Mar 1, 5:10pm EST

Fri Mar 1, 4:10pm EST

Fri Mar 1, 3:10pm EST

Fri Mar 1, 2:10pm EST

Fri Mar 1, 1:10pm EST

Fri Mar 1, 12:10pm EST

Fri Mar 1, 11:10am EST

Fri Mar 1, 10:10am EST

Fri Mar 1, 9:10am EST

Fri Mar 1, 8:10am EST

Fri Mar 1, 7:10am EST

Fri Mar 1, 6:10am EST

Fri Mar 1, 5:10am EST

Fri Mar 1, 4:10am EST

Fri Mar 1, 3:10am EST

Fri Mar 1, 2:10am EST

Fri Mar 1, 1:10am EST

Fri Mar 1, 12:10am EST

Thu Feb 29, 11:10pm EST

Thu Feb 29, 10:10pm EST

Thu Feb 29, 9:10pm EST

Thu Feb 29, 8:10pm EST

Thu Feb 29, 7:10pm EST

Thu Feb 29, 6:10pm EST

Thu Feb 29, 5:10pm EST

Thu Feb 29, 4:10pm EST

Thu Feb 29, 3:10pm EST

Thu Feb 29, 2:10pm EST

Thu Feb 29, 1:10pm EST

Thu Feb 29, 12:10pm EST

Thu Feb 29, 11:10am EST

Thu Feb 29, 10:10am EST

Thu Feb 29, 9:10am EST

Thu Feb 29, 8:10am EST

Thu Feb 29, 7:10am EST

Thu Feb 29, 6:10am EST

Thu Feb 29, 5:10am EST

Thu Feb 29, 4:10am EST

Thu Feb 29, 3:10am EST

Thu Feb 29, 2:10am EST

Thu Feb 29, 1:10am EST

Thu Feb 29, 12:10am EST

Wed Feb 28, 11:10pm EST

Wed Feb 28, 10:10pm EST

Wed Feb 28, 9:10pm EST

Wed Feb 28, 8:10pm EST

Wed Feb 28, 7:10pm EST

Wed Feb 28, 6:10pm EST

Wed Feb 28, 5:10pm EST

Wed Feb 28, 4:10pm EST

Wed Feb 28, 3:10pm EST

Wed Feb 28, 2:10pm EST

Wed Feb 28, 1:10pm EST

Wed Feb 28, 12:10pm EST

Wed Feb 28, 11:10am EST

Wed Feb 28, 10:10am EST

Wed Feb 28, 9:10am EST

Wed Feb 28, 8:10am EST

Wed Feb 28, 7:10am EST

Wed Feb 28, 6:10am EST

Wed Feb 28, 5:10am EST

Wed Feb 28, 4:10am EST

Wed Feb 28, 3:10am EST

Wed Feb 28, 2:10am EST

Wed Feb 28, 1:10am EST

Wed Feb 28, 12:10am EST

Tue Feb 27, 11:10pm EST

Tue Feb 27, 10:10pm EST

Tue Feb 27, 9:10pm EST

Tue Feb 27, 8:10pm EST

Tue Feb 27, 7:10pm EST

Tue Feb 27, 6:10pm EST

Tue Feb 27, 5:10pm EST

Tue Feb 27, 4:10pm EST

Tue Feb 27, 3:10pm EST

Tue Feb 27, 2:10pm EST

Tue Feb 27, 1:10pm EST

Tue Feb 27, 12:10pm EST

Tue Feb 27, 11:10am EST

Tue Feb 27, 10:10am EST

Tue Feb 27, 9:10am EST

Tue Feb 27, 8:10am EST

Tue Feb 27, 7:10am EST

Tue Feb 27, 6:10am EST

Tue Feb 27, 5:10am EST

Tue Feb 27, 4:10am EST

Tue Feb 27, 3:10am EST

Tue Feb 27, 2:10am EST

Tue Feb 27, 1:10am EST

Tue Feb 27, 12:10am EST

Mon Feb 26, 11:10pm EST

Mon Feb 26, 10:10pm EST

Mon Feb 26, 9:10pm EST

Mon Feb 26, 8:10pm EST

Mon Feb 26, 7:10pm EST

Mon Feb 26, 6:10pm EST

Mon Feb 26, 5:10pm EST

Mon Feb 26, 4:10pm EST

Mon Feb 26, 3:10pm EST

Mon Feb 26, 2:10pm EST

Mon Feb 26, 1:10pm EST

Mon Feb 26, 12:10pm EST

Mon Feb 26, 11:10am EST

Mon Feb 26, 10:10am EST

Mon Feb 26, 9:10am EST

Mon Feb 26, 8:10am EST

Mon Feb 26, 7:10am EST

Mon Feb 26, 6:10am EST

Mon Feb 26, 5:10am EST

Mon Feb 26, 4:10am EST

Mon Feb 26, 3:10am EST

Mon Feb 26, 2:10am EST

Mon Feb 26, 1:10am EST

Mon Feb 26, 12:10am EST

Sun Feb 25, 11:10pm EST

Sun Feb 25, 10:10pm EST

Sun Feb 25, 9:10pm EST

Sun Feb 25, 8:10pm EST

Sun Feb 25, 7:10pm EST

Sun Feb 25, 6:10pm EST

Sun Feb 25, 5:10pm EST

Sun Feb 25, 4:10pm EST

Sun Feb 25, 3:10pm EST

Sun Feb 25, 2:10pm EST

Sun Feb 25, 1:10pm EST

Sun Feb 25, 12:10pm EST

Sun Feb 25, 11:10am EST

Sun Feb 25, 10:10am EST

Sun Feb 25, 9:10am EST

Sun Feb 25, 8:10am EST

Sun Feb 25, 7:10am EST

Sun Feb 25, 6:10am EST

Sun Feb 25, 5:10am EST

Sun Feb 25, 4:10am EST

Sun Feb 25, 3:10am EST

Sun Feb 25, 2:10am EST

Sun Feb 25, 1:10am EST

Sun Feb 25, 12:10am EST

Sat Feb 24, 11:10pm EST

Sat Feb 24, 10:10pm EST

Sat Feb 24, 9:10pm EST

Sat Feb 24, 8:10pm EST

Sat Feb 24, 7:10pm EST

Sat Feb 24, 6:10pm EST

Sat Feb 24, 5:10pm EST

Sat Feb 24, 4:10pm EST

Sat Feb 24, 2:10pm EST

Sat Feb 24, 1:10pm EST

Sat Feb 24, 12:10pm EST

Sat Feb 24, 11:10am EST

Sat Feb 24, 10:10am EST

Sat Feb 24, 9:10am EST